Location: Seattle
(47.6064°N, 122.3308°W)
Time: 03:56:14
(UTC-08:00)

N. Korean satellite - Pass Details

Date: 05 November 2020
Orbit: 453 x 503 km, 97.2° (Epoch: 03 December)

Event Time Altitude Azimuth Distance (km) Brightness Sun altitude
Rises 05:59:35 0° 9° (N) 2,479 10.1 -10.6°
Reaches altitude 10° 06:01:38 10° 6° (N) 1,602 9.1 -10.3°
Maximum altitude 06:05:01 63° 286° (WNW) 515 6.4 -9.7°
Drops below altitude 10° 06:08:25 10° 204° (SSW) 1,601 9.1 -9.1°
Sets 06:10:28 0° 201° (SSW) 2,476 10.1 -8.8°
